AmicalSat
1 46287U 20061R 21329.46551744 .00001368 00000-0 85867-4 0 9995
2 46287 97.4725 39.1052 0001240 249.1653 110.9444 15.10930989 67652
SALSAT
1 46495U 20068K 21329.58066466 .00001221 00000-0 93477-4 0 9992
2 46495 97.7048 266.2377 0015554 247.4096 112.5484 15.03674961 63545
BY70-3
1 46839U 20079N 21329.86015485 .00005341 00000-0 15791-3 0 9991
2 46839 97.2254 40.5263 0006739 2.3675 109.2079 15.35325704 58959
SPOC
1 46921U 98067RR 21329.49250473 .00018720 00000-0 23782-3 0 9996
2 46921 51.6394 250.5349 0001161 67.3694 292.7421 15.59438097 59949
Bobcat-1
1 46922U 98067RS 21329.46996258 .00031739 00000-0 33054-3 0 9990
2 46922 51.6404 245.9189 0002376 99.7191 260.4072 15.64261548 59969
Neutron-1
1 46923U 98067RT 21329.26511674 .00018363 00000-0 23469-3 0 9991
2 46923 51.6399 252.0152 0001669 66.3209 293.7959 15.59293601 59924
CAPE 3
1 47309U 21002A 21329.75314406 .00002480 00000-0 11875-3 0 9994
2 47309 60.6868 48.5889 0040244 132.8933 227.5544 15.21641589 47422
AO-109
1 47311U 21002C 21329.50716618 .00002188 00000-0 10417-3 0 9997
2 47311 60.6867 47.9935 0036268 129.1307 231.3013 15.22448789 47381
MiTEE 1
1 47314U 21002F 21329.78918322 .00003650 00000-0 15552-3 0 9996
2 47314 60.6857 44.1840 0037839 121.6671 238.8117 15.24574838 47499
ExoCube 2
1 47319U 21002L 21329.51746318 .00002134 00000-0 10295-3 0 9991
2 47319 60.6851 48.5743 0036680 132.0206 228.4014 15.22066764 47348
UVSQ-SAT
1 47438U 21006AB 21329.58223147 .00001588 00000-0 91844-4 0 9996
2 47438 97.4680 27.7901 0011024 260.2003 99.7984 15.13662195 46420
YUSAT 1
1 47439U 21006AC 21329.58159550 .00001867 00000-0 10710-3 0 9995
2 47439 97.4685 27.8019 0010885 260.4778 99.5224 15.13737890 46422
SOMP 2b
1 47445U 21006AJ 21329.41647127 .00001320 00000-0 77347-4 0 9990
2 47445 97.4652 27.4404 0010673 265.2734 94.7279 15.13471912 46390
IDEASSat
1 47458U 21006AX 21329.44397617 .00001415 00000-0 83028-4 0 9991
2 47458 97.4742 27.7706 0009750 262.8963 97.1159 15.13332710 46399
RSP-01
1 47925U 98067SB 21329.23146591 .00019940 00000-0 27775-3 0 9999
2 47925 51.6404 259.2772 0000782 123.8343 236.2724 15.56925289 39778
TAUSAT-1
1 47926U 98067SC 21329.28493307 .00026421 00000-0 33850-3 0 9998
2 47926 51.6392 257.3709 0000810 152.8240 207.2796 15.58982801 39798
Tsuru
1 47927U 98067SD 21329.27406531 .00017607 00000-0 25245-3 0 9996
2 47927 51.6407 259.5606 0000585 136.3155 223.7883 15.56235921 39777
STARS-EC
1 47928U 98067SE 21329.22348592 .00031878 00000-0 40690-3 0 9991
2 47928 51.6397 258.4620 0004015 34.3174 325.8078 15.58971838 39765
Maya-2
1 47929U 98067SF 21329.52660477 .00017679 00000-0 25327-3 0 9997
2 47929 51.6401 258.2453 0000640 149.5064 210.5964 15.56255458 39777
OPUSAT-II
1 47930U 98067SG 21329.40842647 .00030100 00000-0 37433-3 0 9992
2 47930 51.6398 256.7093 0001864 128.9372 231.1787 15.59696292 39825
GuaraniSat-1
1 47931U 98067SH 21329.52353526 .00017828 00000-0 25497-3 0 9998
2 47931 51.6410 258.2294 0000646 153.0713 207.0312 15.56294244 39819
CubeSX-Sirius-HSE
1 47951U 21022V 21329.85370225 .00001513 00000-0 10732-3 0 9998
2 47951 97.5452 228.6590 0023259 119.1939 241.1591 15.06038390 37341
CubeSX-HSE
1 47952U 21022W 21329.84724098 .00001217 00000-0 87060-4 0 9999
2 47952 97.5456 228.6624 0023233 118.4815 241.8734 15.06075889 37341
KSU-Cubesat
1 47954U 21022Y 21329.50092834 .00000702 00000-0 51897-4 0 9997
2 47954 97.5452 228.3659 0022802 119.3093 241.0416 15.06179817 37012
GRBAlpha
1 47959U 21022AD 21329.84729424 .00001249 00000-0 89257-4 0 9999
2 47959 97.5456 228.6808 0023108 118.9828 241.3699 15.06082289 36168
Orbicraft-Zorkiy
1 47960U 21022AE 21329.83587533 .00000942 00000-0 68219-4 0 9997
2 47960 97.5468 228.7343 0022843 118.1032 242.2510 15.06154712 36851
STECCO
1 47962U 21022AG 21329.74111640 .00002323 00000-0 15718-3 0 9991
2 47962 97.5425 228.9292 0017932 114.7201 325.3760 15.07371260 36168
DO-111
1 47963U 21022AH 21329.69927912 .00002935 00000-0 19180-3 0 9999
2 47963 97.5446 229.1481 0020568 110.4217 249.9223 15.08418069 36192
MO-110
1 47964U 21022AJ 21329.48304867 .00001878 00000-0 12672-3 0 9999
2 47964 97.5443 228.8031 0020972 112.5934 247.7515 15.07654662 36139
FEES
1 48082U 21022AL 21329.55141429 .00002702 00000-0 18218-3 0 9991
2 48082 97.5445 228.7484 0017169 109.1024 251.2065 15.07373352 35841
RamSat
1 48850U 98067SL 21329.80841726 .00012791 00000-0 20824-3 0 9997
2 48850 51.6415 260.8456 0004530 40.5809 319.5518 15.53018746 25557
MO-112
1 48868U 98067SP 21329.23896848 .00030624 00000-0 42550-3 0 9993
2 48868 51.6395 262.2935 0003983 70.0900 290.0520 15.56722718 24269
TUBIN
1 48900U 21059X 21329.83050984 .00001401 00000-0 84118-4 0 9994
2 48900 97.5297 96.3977 0011953 86.1698 66.1353 15.12504291 23122
IT-SPINS
1 49017U 21013G 21329.60960313 .00001501 00000-0 76162-4 0 9996
2 49017 51.6054 292.4579 0007315 44.7923 315.3644 15.23415668 22682
LEDSAT
1 49069U 21073D 21329.65741093 .00000730 00000-0 52194-4 0 9998
2 49069 97.5487 41.5641 0026459 271.8620 87.9578 15.07328446 15126
CUTE
1 49263U 21088D 21329.44349634 .00000715 00000-0 59346-4 0 9991
2 49263 97.6177 36.4096 0019774 50.7230 309.5745 15.01746110 8799
Binar-1
1 49272U 98067SR 21329.72705362 .00012418 00000-0 21443-3 0 9996
2 49272 51.6414 263.2908 0003203 278.7726 81.2901 15.51396114 7907
Maya-3
1 49273U 98067SS 21329.52950151 .00015407 00000-0 26131-3 0 9993
2 49273 51.6413 264.2215 0002800 271.8068 88.2601 15.51695039 7872
Maya-4
1 49274U 98067ST 21329.53086941 .00015313 00000-0 26023-3 0 9998
2 49274 51.6410 264.2306 0002758 270.4221 89.6452 15.51645037 7871
CUAVA-1
1 49275U 98067SU 21329.85569935 .00016360 00000-0 27683-3 0 9999
2 49275 51.6429 262.5761 0002687 287.0597 104.5355 15.51708403 7875
TeikyoSat 4
1 49396U 21102B 21329.82058672 -.00000261 00000-0 -16213-4 0 9990
2 49396 97.5618 28.9055 0013413 212.1063 147.9338 15.00255237 2518
Z-Sat
1 49399U 21102E 21329.82807941 -.00000075 00000-0 -11722-5 0 9998
2 49399 97.5624 28.9567 0018829 195.2574 305.5819 15.01925569 2519
KOSEN 1
1 49402U 21102H 21329.75264348 .00000900 00000-0 71370-4 0 9992
2 49402 97.5583 28.8880 0022141 190.8856 314.7593 15.02813560 2509
/EX
1
0
SB KEPS @ AMSAT $ORB21322.N
2Line Orbital Elements 21322.AMSAT
HR AMSAT ORBITAL ELEMENTS FOR AMATEUR SATELLITES IN NASA FORMAT
FROM WA5QGD FORT WORTH,TX November 18, 2021
BID: ORB21322.N
DECODE 2-LINE ELSETS WITH THE FOLLOWING KEY:
1 AAAAAU 00 0 0 BBBBB.BBBBBBBB .CCCCCCCC 00000-0 00000-0 0 DDDZ
2 AAAAA EEE.EEEE FFF.FFFF GGGGGGG HHH.HHHH III.IIII JJ.JJJJJJJJKKKKKZ
KEY: A-CATALOGNUM B-EPOCHTIME C-DECAY D-ELSETNUM E-INCLINATION F-RAAN
G-ECCENTRICITY H-ARGPERIGEE I-MNANOM J-MNMOTION K-ORBITNUM Z-CHECKSUM
TO ALL RADIO AMATEURS BT
AO-07
1 07530U 74089B 21322.45086983 -.00000044 00000-0 77567-5 0 9992
2 07530 101.8769 296.9038 0012496 86.0142 85.8334 12.53651439151028
UO-11
1 14781U 84021B 21322.53507189 .00000189 00000-0 29085-4 0 9990
2 14781 97.6021 314.8671 0007088 300.6184 59.4332 14.83367034 8770
LO-19
1 20442U 90005G 21322.51808446 .00000007 00000-0 19210-4 0 9996
2 20442 98.7633 279.5348 0012804 70.0388 290.2174 14.33006661662895
HUBBLE
1 20580U 90037B 21322.53151793 .00000687 00000-0 30439-4 0 9992
2 20580 28.4692 125.4611 0002481 285.0113 104.6328 15.09842550534301
MET-2/21
1 22782U 93055A 21322.58493990 .00000047 00000-0 29016-4 0 9993
2 22782 82.5495 181.5966 0021528 217.0350 171.8226 13.83841364424848
